Location: Wiesbaden
(50.0830°N, 8.2500°E)
Time: 20:01:10
(UTC+02:00)

ISS - Pass Details

Date: 15 July 2019
Orbit: 409 x 418 km, 51.6° (Epoch: 20 July)

Event Time Altitude Azimuth Distance (km) Brightness Sun altitude
Rises 03:55:50 0° 284° (WNW) 2,348 -0.2 -11.7°
Reaches altitude 10° 03:57:56 10° 285° (WNW) 1,483 -1.2 -11.5°
Maximum altitude 04:01:16 86° 15° (NNE) 417 -3.8 -11.2°
Drops below altitude 10° 04:04:35 10° 104° (ESE) 1,476 -0.7 -10.9°
Sets 04:06:40 0° 105° (ESE) 2,335 0.3 -10.7°
